Location: Allison Elementary School
(34.0784°N, 117.7317°W)
Time: 10:41:29
(UTC+00:00)

Cosmos 1633 Rocket - Pass Details

Date: 15 November 2019
Orbit: 608 x 622 km, 82.5° (Epoch: 12 December)

Event Time Altitude Azimuth Distance (km) Brightness Sun altitude
Rises 01:39:25 0° 7° (N) 2,896 6.3 -11.0°
Reaches altitude 10° 01:41:55 10° 19° (NNE) 1,988 5.3 -11.5°
Maximum altitude 01:45:42 27° 78° (ENE) 1,188 3.9 -12.2°
Drops below altitude 10° 01:49:27 10° 137° (SE) 1,983 5.4 -13.0°
Sets 01:51:56 0° 149° (SSE) 2,886 6.3 -13.5°
